Birmingham, AL

11:09 AM CST on November 17, 2019 (GMT -0600)
Birmingham International

Weather History for KBHM - October, 2019

Change the Weather History Date:

Sunday, October 20, 2019

  Actual Average Record
Temperature  
Mean Temperature 66 °F 63 °F  
Max Temperature 75 °F 74 °F 90 °F (2016)
Min Temperature 56 °F 51 °F 32 °F (1964)
Degree Days  
Heating Degree Days 0 4  
Month to date heating degree days 38 54  
Since 1 July heating degree days 38 63  
Cooling Degree Days 1 2  
Month to date cooling degree days 161 70  
Year to date cooling degree days 2610 2020  
Growing Degree Days 14 (Base 50)    
Moisture  
Dew Point 57 °F    
Average Humidity 75    
Maximum Humidity 93    
Minimum Humidity 57    
Precipitation  
Precipitation 0.00 in 0.10 in 1.56 in (1929)
Month to date precipitation 1.64 2.20  
Year to date precipitation 38.70 43.18  
Snow  
Snow 0.00 in 0.00 in - ()
Month to date snowfall 0.0 0.0  
Since 1 July snowfall 0.0 0.0  
Since 1 September snowfall 0.0 0.0  
Snow Depth 0.00 in    
Sea Level Pressure  
Sea Level Pressure 29.92 in    
Wind  
Wind Speed 2 mph (WNW)    
Max Wind Speed 7 mph    
Max Gust Speed 10 mph    
Visibility 9 miles    
Events      
T = Trace of Precipitation, MM = Missing Value Source: NWS Daily Summary

Daily Weather History Graph

Daily Weather History Graph

Search for Another Location

Airport or City:

Astronomy

Oct. 20, 2019 Rise Set
Actual Time 6:55 AM CDT 6:07 PM CDT
Civil Twilight 6:30 AM CDT 6:32 PM CDT
Nautical Twilight 6:01 AM CDT 7:01 PM CDT
Astronomical Twilight 5:32 AM CDT 7:30 PM CDT
Moon 11:27 PM CDT (10/20) 1:11 PM CDT (10/20)
Length of Visible Light 12h 02m
Length of Day
11h 12m
Waning Gibbous, 59% of the Moon is Illuminated
Oct 20
Waning Gibbous
Oct 21
Last Quarter
Oct 27
New
Nov 4
First Quarter
Nov 12
Full

Hourly Weather History & Observations

Time (CDT) Temp. Dew Point Humidity Pressure Visibility Wind Dir Wind Speed Gust Speed Precip Events Conditions
12:53 AM 59.0 °F 54.0 °F 83% 29.83 in 10.0 mi Calm Calm - N/A   Overcast
1:53 AM 59.0 °F 55.9 °F 90% 29.86 in 10.0 mi NW 4.6 mph - N/A   Overcast
2:53 AM 57.0 °F 55.0 °F 93% 29.85 in 10.0 mi North 3.5 mph - N/A   Overcast
3:37 AM 57.9 °F 55.0 °F 90% 29.87 in 10.0 mi Calm Calm - N/A   Overcast
3:53 AM 57.9 °F 55.9 °F 93% 29.87 in 10.0 mi SSW 3.5 mph - N/A   Overcast
4:10 AM 57.9 °F 55.0 °F 90% 29.88 in 10.0 mi SSW 4.6 mph - N/A   Overcast
4:53 AM 57.9 °F 55.0 °F 90% 29.88 in 10.0 mi Calm Calm - N/A   Overcast
5:31 AM 57.0 °F 55.0 °F 93% 29.90 in 10.0 mi Calm Calm - N/A   Scattered Clouds
5:40 AM 57.0 °F 55.0 °F 93% 29.90 in 10.0 mi Calm Calm - N/A   Mostly Cloudy
5:51 AM 55.4 °F 53.6 °F 94% 29.91 in 10.0 mi Calm Calm - N/A   Mostly Cloudy
5:53 AM 57.0 °F 54.0 °F 89% 29.90 in 10.0 mi Calm Calm - N/A   Mostly Cloudy
6:00 AM 57.0 °F 54.0 °F 89% 29.91 in 10.0 mi Calm Calm - N/A   Mostly Cloudy
6:19 AM 55.9 °F 54.0 °F 93% 29.91 in 10.0 mi Calm Calm - N/A   Overcast
6:53 AM 57.0 °F 55.0 °F 93% 29.91 in 10.0 mi Calm Calm - N/A   Overcast
7:16 AM 57.0 °F 55.0 °F 93% 29.92 in 10.0 mi Calm Calm - N/A   Overcast
7:53 AM 57.9 °F 55.9 °F 93% 29.93 in 10.0 mi Calm Calm - N/A   Overcast
8:53 AM 59.0 °F 55.9 °F 90% 29.96 in 3.0 mi NNW 3.5 mph - N/A   Overcast
9:53 AM 60.1 °F 57.0 °F 90% 29.97 in 3.0 mi NNW 3.5 mph - N/A   Overcast
10:53 AM 61.0 °F 57.9 °F 90% 29.97 in 3.0 mi Calm Calm - N/A   Overcast
11:53 AM 62.1 °F 57.9 °F 86% 29.98 in 10.0 mi Calm Calm - N/A   Overcast
12:53 PM 66.0 °F 59.0 °F 78% 29.97 in 9.0 mi WSW 4.6 mph - N/A   Scattered Clouds
1:53 PM 68.0 °F 60.1 °F 76% 29.94 in 9.0 mi Calm Calm - N/A   Scattered Clouds
2:53 PM 72.0 °F 60.1 °F 66% 29.94 in 10.0 mi South 3.5 mph - N/A   Mostly Cloudy
3:53 PM 73.9 °F 57.9 °F 57% 29.94 in 10.0 mi Calm Calm - N/A   Partly Cloudy
4:53 PM 73.9 °F 60.1 °F 62% 29.94 in 10.0 mi NNW 5.8 mph - N/A   Scattered Clouds
5:53 PM 71.1 °F 61.0 °F 70% 29.93 in 10.0 mi North 3.5 mph - N/A   Partly Cloudy
6:53 PM 66.9 °F 61.0 °F 81% 29.94 in 10.0 mi Calm Calm - N/A   Clear
7:53 PM 64.0 °F 61.0 °F 90% 29.94 in 10.0 mi East 3.5 mph - N/A   Clear
8:53 PM 66.0 °F 61.0 °F 84% 29.95 in 10.0 mi Calm Calm - N/A   Scattered Clouds
9:53 PM 66.0 °F 61.0 °F 84% 29.97 in 10.0 mi Calm Calm - N/A   Partly Cloudy
10:53 PM 64.0 °F 60.1 °F 87% 29.97 in 10.0 mi Calm Calm - N/A   Scattered Clouds
11:53 PM 64.0 °F 59.0 °F 84% 29.96 in 10.0 mi SE 3.5 mph - N/A   Scattered Clouds